Regional Weather Roundup
Issued by NWS

Home | Current Version | Previous Version | Graphics & Text | Print | Product List | Glossary On
Versions: 1 2 3 4 5 6 7 8 9 10 11 12 13 14 15 16 17 18 19 20 21 22 23 24 25 26 27 28 29 30 31 32 33 34 35 36 37 38 39 40 41 42 43 44 45 46 47 48 49 50
477
ASUS43 KLSX 072057
RWRMO

WEATHER SUMMARY FOR MISSOURI
NATIONAL WEATHER SERVICE SPRINGFIELD MO
300 PM CST SUN FEB 07 2016

NOTE: "FAIR" INDICATES FEW OR NO CLOUDS BELOW 12,000 FEET WITH NO
       SIGNIFICANT WEATHER AND/OR OBSTRUCTIONS TO VISIBILITY.
       CURRENT SKY AND/OR WEATHER CONDITIONS ARE NOT AVAILABLE FOR
       CHILLICOTHE AND FARMINGTON.

MOZ001>031-035>038-043-044-053-054-072200-
...NORTHERN AND WESTERN MISSOURI...

CITY           SKY/WX    TMP DP  RH WIND       PRES   REMARKS
KANSAS CTY INT PTSUNNY   50  25  37 NW23G31   30.00F
LEE`S SUMMIT   MOSUNNY   50  23  34 W20G29    29.99F
ST JOSEPH      SUNNY     51  18  27 NW25G32   29.99F
CHILLICOTHE      N/A     51  29  42 NW10G25   29.95R

$$
MOZ066>068-077>081-088>096-101>105-072200-
...SOUTHWEST MISSOURI...

CITY           SKY/WX    TMP DP  RH WIND       PRES   REMARKS
SPRINGFIELD    SUNNY     50  27  40 W13G24    30.01F
JOPLIN         PTSUNNY   52  28  39 W14       30.06F

$$
MOZ032>034-039>042-045>050-055>058-069>072-072200-
...CENTRAL MISSOURI...

CITY           SKY/WX    TMP DP  RH WIND       PRES   REMARKS
COLUMBIA       NOT AVBL
JEFFERSON CITY MOSUNNY   52  28  39 NW17G23   29.94S
ROLLA          SUNNY     50  28  42 W17G25    29.93R
SEDALIA        PTSUNNY   50  24  36 W17G28    29.97F

$$
MOZ051-052-059>065-072200-
...EAST CENTRAL MISSOURI...

CITY           SKY/WX    TMP DP  RH WIND       PRES   REMARKS
ST LOUIS INTL  PTSUNNY   53  27  36 W17G23    29.89S

$$
MOZ072>076-082>087-097>100-106>115-072200-
...SOUTH CENTRAL AND SOUTHEAST MISSOURI...

CITY           SKY/WX    TMP DP  RH WIND       PRES   REMARKS
CAPE GIRARDEAU MOSUNNY   55  31  39 SW18      29.93S
POPLAR BLUFF   PTSUNNY   59  26  28 W15G23    29.94F
WEST PLAINS    CLOUDY    54  26  34 W13       29.97F

$$



USA.gov is the U.S. government's official web portal to all federal, state and local government web resources and services.